Location: Abyssinia Baptist Church
(32.7840°N, 96.7578°W)
Time: 05:08:59
(UTC+00:00)

SL-4 R/B - Pass Details

Date: 11 July 2022
Orbit: 425 x 653 km, 51.6° (Epoch: 17 August)

Event Time Altitude Azimuth Distance (km) Brightness Sun altitude
Rises 03:48:21 0° 254° (WSW) 2,374 5.6 -22.6°
Reaches altitude 10° 03:50:44 10° 270° (W) 1,509 4.8 -22.9°
Maximum altitude 03:53:28 22° 325° (NW) 974 4.1 -23.3°
Drops below altitude 10° 03:56:14 10° 19° (NNE) 1,537 4.7 -23.6°
Sets 03:58:42 0° 35° (NE) 2,432 5.5 -24.0°
